User: anonymous   Login
Location: Fauquembergues
(50.6005°N, 2.0987°E)
Time: 19:44:37
(UTC+00:00)
Language:

Meteor 1-11 Rocket - Orbit

View from above orbital plane
View from above orbital plane
View from above satellite
View from above satellite

Ground track
Ground track

The orbit data is extracted from the following two-line orbital elements,

1  5918U 72022B   20263.47732957 -.00000010  00000-0 -13547-4 0  9990
2  5918  81.2347 254.3966 0057336 221.2962 138.3864 14.05872399485236
Epoch (UTC): 19 September 2020 11:27:21
Eccentricity: 0.0057336
inclination: 81.2347°
perigee height: 832 km
apogee height: 915 km
right ascension of ascending node: 254.3966°
argument of perigee: 221.2962°
revolutions per day: 14.05872399
mean anomaly at epoch: 138.3864°
orbit number at epoch: 48523

The dashed part of the orbit path shows where the satellite is in the earth's shadow,  

DLR